Terug naar catalogus

YAOGAN-30 E

ActiefMilitairVLEO
NORAD 43029·PAYLOAD·🇨🇳 China

Gelanceerd Nov 24, 2017 vanaf Xichang Satellite Launch Center

Loading…

Volgende Passages (komende 24 uur)

TLE

VersSource: Space-Track

Epoch: Sep 14, 2026, 14:55 UTC

1 43029U 17075B   26257.62205017  .00001779  00000-0  13164-3 0  9995
2 43029  34.9935  84.9678 0004427 300.4681  59.5590 15.03006238480827

Volg YAOGAN-30 E in realtime met AllMySat

Download on the App Store